GLD1043 SBSI-SBSP

Flight info

Callsign GLD1043
Flight time 2h 7m
Altitude 35000
Route OBKAV UZ40 OPMUS UZ87 PALCA UM411 UTLOT
Aircraft B738/M-SDE2E3FGHIRWXY/LB1

Departure

Time 2026-04-23 22:20
Airport Presidente João Batista Figueiredo Airport (SBSI)

Arrival

Time 2026-04-24 00:27
Airport Congonhas–Deputado Freitas Nobre Airport (SBSP)
Time Latitude Longitude Altitude Speed Heading
2026-04-23 21:58 -11.87817 -55.58231 1254 ft 0 kts 105°
2026-04-23 22:11 -11.87813 -55.58248 1253 ft 4 kts 92°
2026-04-23 22:11 -11.87818 -55.58272 1249 ft 4 kts 48°
2026-04-23 22:11 -11.87839 -55.58286 1256 ft 3 kts 17°
2026-04-23 22:12 -11.87861 -55.58293 1251 ft 4 kts 16°
2026-04-23 22:12 -11.87888 -55.58300 1245 ft 4 kts 15°
2026-04-23 22:12 -11.87896 -55.58303 1248 ft 1 kts 15°
2026-04-23 22:14 -11.87893 -55.58302 1243 ft 1 kts 15°
2026-04-23 22:14 -11.87869 -55.58301 1252 ft 5 kts 345°
2026-04-23 22:14 -11.87847 -55.58340 1242 ft 9 kts 284°
2026-04-23 22:15 -11.87828 -55.58412 1240 ft 9 kts 284°
2026-04-23 22:15 -11.87867 -55.58459 1244 ft 10 kts 192°
2026-04-23 22:15 -11.87937 -55.58477 1248 ft 11 kts 194°
2026-04-23 22:15 -11.88015 -55.58498 1244 ft 13 kts 195°
2026-04-23 22:16 -11.88105 -55.58523 1246 ft 14 kts 195°
2026-04-23 22:16 -11.88206 -55.58550 1243 ft 16 kts 194°
2026-04-23 22:16 -11.88317 -55.58579 1253 ft 17 kts 194°
2026-04-23 22:16 -11.88430 -55.58610 1244 ft 16 kts 195°
2026-04-23 22:17 -11.88541 -55.58639 1244 ft 17 kts 194°
2026-04-23 22:17 -11.88653 -55.58670 1244 ft 16 kts 195°
2026-04-23 22:17 -11.88759 -55.58698 1244 ft 16 kts 194°
2026-04-23 22:17 -11.88871 -55.58728 1248 ft 18 kts 195°
2026-04-23 22:18 -11.88995 -55.58762 1249 ft 19 kts 195°
2026-04-23 22:18 -11.89117 -55.58794 1242 ft 13 kts 194°
2026-04-23 22:18 -11.89178 -55.58779 1244 ft 8 kts 161°
2026-04-23 22:18 -11.89204 -55.58802 1256 ft 4 kts 279°
2026-04-23 22:19 -11.89183 -55.58810 1249 ft 3 kts
2026-04-23 22:19 -11.89172 -55.58808 1246 ft 8 kts
2026-04-23 22:19 -11.88826 -55.58717 1256 ft 94 kts 15°
2026-04-23 22:19 -11.87943 -55.58480 1257 ft 166 kts 15°
2026-04-23 22:20 -11.86739 -55.58169 1825 ft 186 kts 15°
2026-04-23 22:20 -11.85585 -55.57662 2893 ft 176 kts 46°
2026-04-23 22:20 -11.84953 -55.56554 3514 ft 197 kts 78°
2026-04-23 22:20 -11.85037 -55.55086 3674 ft 223 kts 110°
2026-04-23 22:21 -11.85567 -55.53533 4002 ft 241 kts 104°
2026-04-23 22:21 -11.85846 -55.51760 4342 ft 261 kts 95°
2026-04-23 22:21 -11.85939 -55.49894 5141 ft 264 kts 91°
2026-04-23 22:21 -11.85947 -55.48041 6034 ft 264 kts 90°
2026-04-23 22:22 -11.86228 -55.46169 6825 ft 267 kts 112°
2026-04-23 22:22 -11.87226 -55.44566 7600 ft 272 kts 133°
2026-04-23 22:22 -11.88632 -55.43300 8369 ft 275 kts 139°
2026-04-23 22:22 -11.90147 -55.42061 9132 ft 280 kts 139°
2026-04-23 22:23 -11.91689 -55.40821 9895 ft 284 kts 139°
2026-04-23 22:23 -11.93267 -55.39549 10353 ft 299 kts 139°
2026-04-23 22:23 -11.94969 -55.38168 10508 ft 323 kts 139°
2026-04-23 22:23 -11.96784 -55.36690 10711 ft 343 kts 139°
2026-04-23 22:24 -11.98676 -55.35145 11179 ft 352 kts 139°
2026-04-23 22:24 -12.00601 -55.33570 11805 ft 356 kts 139°
2026-04-23 22:24 -12.02516 -55.32001 12450 ft 359 kts 139°
2026-04-23 22:24 -12.04475 -55.30394 13070 ft 363 kts 139°
2026-04-23 22:25 -12.06455 -55.28767 13674 ft 367 kts 140°
2026-04-23 22:25 -12.08452 -55.27125 14250 ft 369 kts 139°
2026-04-23 22:25 -12.10458 -55.25475 14833 ft 371 kts 139°
2026-04-23 22:25 -12.12478 -55.23813 15369 ft 374 kts 140°
2026-04-23 22:26 -12.14511 -55.22139 15885 ft 377 kts 140°
2026-04-23 22:26 -12.16560 -55.20452 16409 ft 380 kts 140°
2026-04-23 22:26 -12.18632 -55.18746 16920 ft 383 kts 140°
2026-04-23 22:26 -12.20687 -55.17052 17415 ft 386 kts 140°
2026-04-23 22:27 -12.22786 -55.15323 17903 ft 388 kts 140°
2026-04-23 22:27 -12.24896 -55.13584 18346 ft 391 kts 140°
2026-04-23 22:27 -12.27029 -55.11826 18738 ft 394 kts 140°
2026-04-23 22:27 -12.29175 -55.10057 19119 ft 397 kts 140°
2026-04-23 22:28 -12.31334 -55.08276 19493 ft 400 kts 140°
2026-04-23 22:28 -12.33509 -55.06482 19871 ft 403 kts 140°
2026-04-23 22:28 -12.35696 -55.04654 20210 ft 406 kts 136°
2026-04-23 22:28 -12.37479 -55.02423 20526 ft 407 kts 118°
2026-04-23 22:29 -12.38906 -54.99965 20924 ft 409 kts 125°
2026-04-23 22:29 -12.40771 -54.97747 21304 ft 412 kts 131°
2026-04-23 22:29 -12.42733 -54.95595 21640 ft 415 kts 131°
2026-04-23 22:29 -12.44691 -54.93395 21961 ft 418 kts 130°
2026-04-23 22:30 -12.46619 -54.91148 22291 ft 421 kts 129°
2026-04-23 22:30 -12.48525 -54.88867 22628 ft 423 kts 128°
2026-04-23 22:30 -12.50426 -54.86552 22952 ft 425 kts 128°
2026-04-23 22:30 -12.52334 -54.84214 23264 ft 428 kts 128°
2026-04-23 22:31 -12.54249 -54.81864 23553 ft 431 kts 128°
2026-04-23 22:31 -12.56146 -54.79538 23818 ft 432 kts 128°
2026-04-23 22:31 -12.58079 -54.77170 24108 ft 433 kts 127°
2026-04-23 22:31 -12.60018 -54.74797 24392 ft 434 kts 128°
2026-04-23 22:32 -12.62119 -54.72551 24645 ft 439 kts 136°
2026-04-23 22:32 -12.64561 -54.70633 24903 ft 444 kts 145°
2026-04-23 22:32 -12.67257 -54.69068 25173 ft 447 kts 148°
2026-04-23 22:32 -12.69973 -54.67578 25431 ft 448 kts 149°
2026-04-23 22:33 -12.72729 -54.66070 25675 ft 450 kts 148°
2026-04-23 22:33 -12.75493 -54.64540 25925 ft 452 kts 148°
2026-04-23 22:33 -12.78252 -54.62994 26166 ft 453 kts 148°
2026-04-23 22:33 -12.81022 -54.61430 26410 ft 455 kts 148°
2026-04-23 22:34 -12.83797 -54.59858 26655 ft 456 kts 148°
2026-04-23 22:34 -12.86579 -54.58283 26880 ft 458 kts 148°
2026-04-23 22:34 -12.89378 -54.56701 27086 ft 460 kts 148°
2026-04-23 22:34 -12.92190 -54.55115 27312 ft 462 kts 148°
2026-04-23 22:35 -12.94974 -54.53546 27539 ft 463 kts 147°
2026-04-23 22:35 -12.97836 -54.51933 27773 ft 464 kts 147°
2026-04-23 22:35 -13.00635 -54.50354 27988 ft 466 kts 147°
2026-04-23 22:35 -13.03480 -54.48749 28200 ft 467 kts 147°
2026-04-23 22:36 -13.06329 -54.47141 28415 ft 468 kts 147°
2026-04-23 22:36 -13.09200 -54.45519 28636 ft 470 kts 147°
2026-04-23 22:36 -13.12070 -54.43898 28828 ft 471 kts 147°
2026-04-23 22:36 -13.14944 -54.42273 29022 ft 473 kts 147°
2026-04-23 22:37 -13.17827 -54.40643 29193 ft 474 kts 147°
2026-04-23 22:37 -13.20724 -54.39006 29395 ft 475 kts 147°
2026-04-23 22:37 -13.23621 -54.37367 29683 ft 474 kts 147°
2026-04-23 22:37 -13.26510 -54.35734 30007 ft 473 kts 147°
2026-04-23 22:38 -13.29384 -54.34109 30290 ft 471 kts 147°
2026-04-23 22:38 -13.32225 -54.32502 30572 ft 470 kts 147°
2026-04-23 22:38 -13.35081 -54.30885 30845 ft 468 kts 147°
2026-04-23 22:38 -13.37940 -54.29266 31133 ft 467 kts 147°
2026-04-23 22:39 -13.40788 -54.27652 31431 ft 466 kts 147°
2026-04-23 22:39 -13.43619 -54.26048 31723 ft 464 kts 147°
2026-04-23 22:39 -13.46452 -54.24442 32022 ft 463 kts 147°
2026-04-23 22:39 -13.49231 -54.22866 32341 ft 461 kts 147°
2026-04-23 22:40 -13.52069 -54.21257 32674 ft 459 kts 147°
2026-04-23 22:40 -13.54822 -54.19695 32975 ft 458 kts 147°
2026-04-23 22:40 -13.60391 -54.16535 33590 ft 455 kts 147°
2026-04-23 22:41 -13.63161 -54.14962 33917 ft 453 kts 148°
2026-04-23 22:41 -13.65917 -54.13397 34185 ft 452 kts 148°
2026-04-23 22:41 -13.68672 -54.11831 34408 ft 452 kts 148°
2026-04-23 22:41 -13.71422 -54.10268 34623 ft 452 kts 148°
2026-04-23 22:42 -13.74175 -54.08703 34853 ft 451 kts 148°
2026-04-23 22:42 -13.79703 -54.05559 34919 ft 454 kts 148°
2026-04-23 22:43 -13.85216 -54.02423 34911 ft 450 kts 148°
2026-04-23 22:43 -13.90656 -53.99328 34924 ft 448 kts 148°
2026-04-23 22:44 -13.96102 -53.96226 34917 ft 446 kts 148°
2026-04-23 22:44 -14.01526 -53.93134 34925 ft 446 kts 148°
2026-04-23 22:45 -14.06954 -53.90039 34927 ft 446 kts 148°
2026-04-23 22:45 -14.12399 -53.86933 34929 ft 447 kts 148°
2026-04-23 22:46 -14.17857 -53.83817 34931 ft 449 kts 148°
2026-04-23 22:46 -14.23298 -53.80709 34930 ft 451 kts 148°
2026-04-23 22:47 -14.28805 -53.77562 34931 ft 452 kts 148°
2026-04-23 22:47 -14.34323 -53.74407 34935 ft 454 kts 148°
2026-04-23 22:48 -14.39851 -53.71244 34932 ft 454 kts 148°
2026-04-23 22:48 -14.45481 -53.68243 34934 ft 455 kts 151°
2026-04-23 22:49 -14.51137 -53.65378 34938 ft 455 kts 151°
2026-04-23 22:49 -14.56800 -53.62435 34938 ft 454 kts 149°
2026-04-23 22:50 -14.61384 -53.59790 34942 ft 453 kts 147°
2026-04-23 22:50 -14.66820 -53.56504 34945 ft 452 kts 147°
2026-04-23 22:51 -14.73142 -53.52706 34942 ft 451 kts 148°
2026-04-23 22:51 -14.77670 -53.50009 34945 ft 451 kts 148°
2026-04-23 22:52 -14.83114 -53.46773 34943 ft 451 kts 148°
2026-04-23 22:52 -14.88557 -53.43534 34938 ft 450 kts 148°
2026-04-23 22:53 -14.93998 -53.40294 34938 ft 450 kts 148°
2026-04-23 22:53 -14.99397 -53.37076 34924 ft 450 kts 148°
2026-04-23 22:54 -15.04851 -53.33868 34933 ft 450 kts 149°
2026-04-23 22:54 -15.10306 -53.30742 34938 ft 451 kts 149°
2026-04-23 22:55 -15.15812 -53.27586 34936 ft 451 kts 149°
2026-04-23 22:55 -15.21298 -53.24428 34930 ft 451 kts 149°
2026-04-23 22:56 -15.26763 -53.21274 34937 ft 452 kts 148°
2026-04-23 22:56 -15.32256 -53.18103 34934 ft 452 kts 148°
2026-04-23 22:57 -15.37760 -53.14923 34933 ft 453 kts 148°
2026-04-23 22:57 -15.43273 -53.11736 34932 ft 453 kts 148°
2026-04-23 22:58 -15.48792 -53.08545 34932 ft 454 kts 148°
2026-04-23 22:58 -15.54305 -53.05353 34933 ft 453 kts 149°
2026-04-23 22:59 -15.59785 -53.02178 34929 ft 453 kts 149°
2026-04-23 22:59 -15.65295 -52.98982 34928 ft 453 kts 149°
2026-04-23 23:00 -15.70798 -52.95788 34928 ft 452 kts 149°
2026-04-23 23:00 -15.76268 -52.92612 34931 ft 452 kts 149°
2026-04-23 23:01 -15.81751 -52.89426 34930 ft 452 kts 149°
2026-04-23 23:01 -15.87245 -52.86232 34929 ft 451 kts 149°
2026-04-23 23:02 -15.92727 -52.83043 34934 ft 451 kts 149°
2026-04-23 23:02 -15.98206 -52.79853 34934 ft 451 kts 149°
2026-04-23 23:03 -16.03684 -52.76662 34940 ft 451 kts 149°
2026-04-23 23:03 -16.09136 -52.73484 34937 ft 451 kts 149°
2026-04-23 23:04 -16.14619 -52.70286 34942 ft 452 kts 149°
2026-04-23 23:04 -16.20117 -52.67077 34938 ft 452 kts 149°
2026-04-23 23:05 -16.25609 -52.63870 34942 ft 453 kts 149°
2026-04-23 23:05 -16.31078 -52.60673 34948 ft 453 kts 149°
2026-04-23 23:06 -16.36573 -52.57460 34947 ft 453 kts 149°
2026-04-23 23:06 -16.42086 -52.54234 34953 ft 453 kts 149°
2026-04-23 23:07 -16.47583 -52.51015 34951 ft 453 kts 149°
2026-04-23 23:07 -16.53081 -52.47793 34951 ft 453 kts 149°
2026-04-23 23:08 -16.58550 -52.44586 34963 ft 453 kts 149°
2026-04-23 23:08 -16.64057 -52.41355 34964 ft 453 kts 149°
2026-04-23 23:09 -16.69534 -52.38146 34966 ft 453 kts 149°
2026-04-23 23:09 -16.75035 -52.34927 34966 ft 453 kts 149°
2026-04-23 23:10 -16.80530 -52.31707 34971 ft 453 kts 150°
2026-04-23 23:10 -16.86029 -52.28482 34971 ft 453 kts 150°
2026-04-23 23:11 -16.91529 -52.25254 34970 ft 453 kts 149°
2026-04-23 23:11 -16.97042 -52.22015 34983 ft 453 kts 149°
2026-04-23 23:12 -17.02510 -52.18801 34987 ft 453 kts 150°
2026-04-23 23:12 -17.08021 -52.15571 34983 ft 454 kts 150°
2026-04-23 23:13 -17.13549 -52.12373 34987 ft 454 kts 150°
2026-04-23 23:13 -17.19062 -52.09189 35003 ft 454 kts 150°
2026-04-23 23:14 -17.24601 -52.05981 34992 ft 454 kts 150°
2026-04-23 23:14 -17.30100 -52.02792 35004 ft 454 kts 150°
2026-04-23 23:15 -17.35645 -51.99572 35009 ft 455 kts 150°
2026-04-23 23:15 -17.41180 -51.96355 35015 ft 455 kts 150°
2026-04-23 23:16 -17.46697 -51.93148 35016 ft 455 kts 150°
2026-04-23 23:16 -17.52240 -51.89923 35007 ft 456 kts 150°
2026-04-23 23:17 -17.57800 -51.86685 35011 ft 456 kts 150°
2026-04-23 23:17 -17.63352 -51.83450 35014 ft 457 kts 150°
2026-04-23 23:18 -17.68887 -51.80223 35014 ft 457 kts 150°
2026-04-23 23:18 -17.74456 -51.76974 35010 ft 457 kts 150°
2026-04-23 23:19 -17.80016 -51.73727 35006 ft 457 kts 150°
2026-04-23 23:19 -17.85570 -51.70482 35014 ft 457 kts 150°
2026-04-23 23:20 -17.91104 -51.67245 35012 ft 457 kts 150°
2026-04-23 23:20 -17.96665 -51.63991 35008 ft 457 kts 150°
2026-04-23 23:21 -18.02220 -51.60738 35003 ft 457 kts 150°
2026-04-23 23:21 -18.07771 -51.57485 35008 ft 457 kts 150°
2026-04-23 23:22 -18.13294 -51.54246 35005 ft 457 kts 150°
2026-04-23 23:22 -18.18847 -51.50986 34997 ft 456 kts 150°
2026-04-23 23:23 -18.24390 -51.47730 35002 ft 457 kts 151°
2026-04-23 23:23 -18.29921 -51.44406 34995 ft 457 kts 149°
2026-04-23 23:24 -18.35395 -51.41002 34999 ft 457 kts 149°
2026-04-23 23:24 -18.40843 -51.37622 34989 ft 457 kts 149°
2026-04-23 23:25 -18.46336 -51.34228 34992 ft 457 kts 150°
2026-04-23 23:25 -18.51841 -51.30825 34996 ft 457 kts 150°
2026-04-23 23:26 -18.57333 -51.27423 34989 ft 458 kts 150°
2026-04-23 23:26 -18.62800 -51.24032 34978 ft 458 kts 150°
2026-04-23 23:27 -18.68301 -51.20617 34981 ft 458 kts 150°
2026-04-23 23:27 -18.73794 -51.17204 34993 ft 458 kts 150°
2026-04-23 23:28 -18.79253 -51.13811 34984 ft 458 kts 150°
2026-04-23 23:28 -18.84751 -51.10390 34991 ft 459 kts 150°
2026-04-23 23:29 -18.90256 -51.06962 34989 ft 459 kts 150°
2026-04-23 23:29 -18.95755 -51.03535 34991 ft 459 kts 150°
2026-04-23 23:30 -19.01284 -51.00087 34980 ft 460 kts 150°
2026-04-23 23:30 -19.06727 -50.96571 34991 ft 460 kts 149°
2026-04-23 23:31 -19.12175 -50.92974 34992 ft 460 kts 149°
2026-04-23 23:31 -19.17582 -50.89410 34981 ft 461 kts 149°
2026-04-23 23:32 -19.23041 -50.85824 34995 ft 461 kts 149°
2026-04-23 23:32 -19.28512 -50.82232 34990 ft 462 kts 149°
2026-04-23 23:33 -19.33972 -50.78644 34993 ft 462 kts 149°
2026-04-23 23:33 -19.39442 -50.75047 34989 ft 462 kts 149°
2026-04-23 23:34 -19.44880 -50.71467 34994 ft 462 kts 149°
2026-04-23 23:34 -19.50348 -50.67865 34990 ft 463 kts 149°
2026-04-23 23:35 -19.55821 -50.64256 34992 ft 463 kts 149°
2026-04-23 23:35 -19.61299 -50.60640 34988 ft 463 kts 150°
2026-04-23 23:36 -19.66777 -50.57025 34996 ft 463 kts 150°
2026-04-23 23:36 -19.72237 -50.53492 35001 ft 463 kts 150°
2026-04-23 23:37 -19.77762 -50.49943 34991 ft 463 kts 150°
2026-04-23 23:37 -19.83278 -50.46387 34996 ft 463 kts 150°
2026-04-23 23:38 -19.87858 -50.43427 34994 ft 463 kts 150°
2026-04-23 23:38 -19.93374 -50.39858 34999 ft 463 kts 150°
2026-04-23 23:39 -19.98883 -50.36290 34996 ft 463 kts 150°
2026-04-23 23:39 -20.04368 -50.32734 35003 ft 463 kts 150°
2026-04-23 23:40 -20.09871 -50.29164 34999 ft 463 kts 150°
2026-04-23 23:40 -20.15440 -50.25675 35002 ft 463 kts 153°
2026-04-23 23:41 -20.21087 -50.22371 35003 ft 463 kts 153°
2026-04-23 23:41 -20.26697 -50.19095 35005 ft 463 kts 153°
2026-04-23 23:42 -20.32333 -50.15769 35011 ft 463 kts 153°
2026-04-23 23:42 -20.37966 -50.12424 35009 ft 463 kts 153°
2026-04-23 23:43 -20.43592 -50.09074 35017 ft 463 kts 153°
2026-04-23 23:43 -20.49220 -50.05722 35018 ft 463 kts 153°
2026-04-23 23:44 -20.54815 -50.02388 35021 ft 463 kts 153°
2026-04-23 23:44 -20.60462 -49.99020 35014 ft 464 kts 153°
2026-04-23 23:45 -20.66096 -49.95657 35016 ft 464 kts 153°
2026-04-23 23:45 -20.71740 -49.92284 35018 ft 464 kts 153°
2026-04-23 23:46 -20.77355 -49.88927 35016 ft 464 kts 153°
2026-04-23 23:46 -20.83001 -49.85548 35018 ft 465 kts 153°
2026-04-23 23:47 -20.88647 -49.82166 35025 ft 465 kts 153°
2026-04-23 23:47 -20.94260 -49.78800 35025 ft 465 kts 153°
2026-04-23 23:48 -20.99912 -49.75409 35027 ft 465 kts 153°
2026-04-23 23:48 -21.05557 -49.72019 35019 ft 465 kts 153°
2026-04-23 23:49 -21.13992 -49.66947 35027 ft 465 kts 154°
2026-04-23 23:49 -21.19635 -49.63551 35027 ft 465 kts 154°
2026-04-23 23:50 -21.25293 -49.60143 35028 ft 465 kts 154°
2026-04-23 23:50 -21.30935 -49.56741 35029 ft 465 kts 154°
2026-04-23 23:51 -21.36540 -49.53358 35037 ft 465 kts 154°
2026-04-23 23:51 -21.42183 -49.49949 35031 ft 465 kts 154°
2026-04-23 23:52 -21.47831 -49.46534 35037 ft 465 kts 154°
2026-04-23 23:52 -21.53470 -49.43123 35039 ft 465 kts 154°
2026-04-23 23:53 -21.59088 -49.39720 35045 ft 465 kts 154°
2026-04-23 23:53 -21.64728 -49.36300 35047 ft 465 kts 154°
2026-04-23 23:54 -21.70364 -49.32881 35047 ft 465 kts 154°
2026-04-23 23:54 -21.75964 -49.29480 35053 ft 465 kts 154°
2026-04-23 23:55 -21.81595 -49.26057 35057 ft 465 kts 154°
2026-04-23 23:55 -21.87224 -49.22632 35057 ft 465 kts 154°
2026-04-23 23:56 -21.92869 -49.19194 35060 ft 465 kts 154°
2026-04-23 23:56 -21.98496 -49.15763 35069 ft 465 kts 154°
2026-04-23 23:57 -22.04135 -49.12323 35072 ft 465 kts 154°
2026-04-23 23:57 -22.09272 -49.08103 35085 ft 476 kts 132°
2026-04-23 23:58 -22.11099 -49.05120 35080 ft 482 kts 118°
2026-04-23 23:58 -22.12290 -49.01728 35100 ft 485 kts 110°
2026-04-23 23:58 -22.14314 -48.94778 35086 ft 485 kts 111°
2026-04-23 23:59 -22.16476 -48.87875 35082 ft 485 kts 111°
2026-04-23 23:59 -22.18664 -48.81021 35083 ft 485 kts 111°
2026-04-24 00:00 -22.20854 -48.74127 35076 ft 486 kts 111°
2026-04-24 00:00 -22.23040 -48.67204 35079 ft 486 kts 111°
2026-04-24 00:01 -22.25222 -48.60288 35086 ft 486 kts 111°
2026-04-24 00:01 -22.27385 -48.53412 35076 ft 486 kts 111°
2026-04-24 00:02 -22.29561 -48.46482 35081 ft 487 kts 111°
2026-04-24 00:02 -22.31732 -48.39551 35088 ft 487 kts 111°
2026-04-24 00:03 -22.33903 -48.32610 35086 ft 487 kts 111°
2026-04-24 00:03 -22.36057 -48.25714 34921 ft 490 kts 111°
2026-04-24 00:04 -22.37153 -48.22204 34335 ft 493 kts 111°
2026-04-24 00:04 -22.38246 -48.18696 33686 ft 493 kts 111°
2026-04-24 00:04 -22.39337 -48.15193 33152 ft 490 kts 111°
2026-04-24 00:04 -22.40415 -48.11723 32673 ft 486 kts 111°
2026-04-24 00:05 -22.41487 -48.08273 32194 ft 482 kts 111°
2026-04-24 00:05 -22.42552 -48.04843 31729 ft 479 kts 111°
2026-04-24 00:05 -22.43607 -48.01446 31268 ft 476 kts 111°
2026-04-24 00:05 -22.44658 -47.98056 30793 ft 473 kts 111°
2026-04-24 00:06 -22.45703 -47.94687 30333 ft 471 kts 111°
2026-04-24 00:06 -22.46728 -47.91377 29820 ft 469 kts 111°
2026-04-24 00:06 -22.48041 -47.88188 29277 ft 460 kts 127°
2026-04-24 00:06 -22.50029 -47.85488 28877 ft 449 kts 134°
2026-04-24 00:07 -22.52013 -47.82949 28389 ft 447 kts 133°
2026-04-24 00:07 -22.54001 -47.80379 27931 ft 443 kts 133°
2026-04-24 00:07 -22.55962 -47.77812 27463 ft 441 kts 133°
2026-04-24 00:07 -22.57894 -47.75258 27013 ft 438 kts 132°
2026-04-24 00:08 -22.59814 -47.72707 26563 ft 434 kts 132°
2026-04-24 00:08 -22.61696 -47.70199 26125 ft 432 kts 132°
2026-04-24 00:08 -22.63581 -47.67685 25683 ft 429 kts 132°
2026-04-24 00:08 -22.65462 -47.65175 25224 ft 427 kts 131°
2026-04-24 00:09 -22.67334 -47.62678 24784 ft 425 kts 131°
2026-04-24 00:09 -22.69194 -47.60195 24337 ft 423 kts 131°
2026-04-24 00:09 -22.71042 -47.57728 23897 ft 421 kts 131°
2026-04-24 00:09 -22.72885 -47.55265 23405 ft 419 kts 131°
2026-04-24 00:10 -22.74715 -47.52820 22935 ft 416 kts 131°
2026-04-24 00:10 -22.76527 -47.50398 22482 ft 412 kts 130°
2026-04-24 00:10 -22.78328 -47.47989 22036 ft 408 kts 130°
2026-04-24 00:10 -22.80078 -47.45644 21606 ft 399 kts 130°
2026-04-24 00:11 -22.81815 -47.43316 21207 ft 394 kts 130°
2026-04-24 00:11 -22.83532 -47.41014 20801 ft 391 kts 130°
2026-04-24 00:11 -22.85235 -47.38729 20385 ft 388 kts 129°
2026-04-24 00:11 -22.86926 -47.36460 19982 ft 385 kts 129°
2026-04-24 00:12 -22.88601 -47.34211 19578 ft 382 kts 129°
2026-04-24 00:12 -22.90270 -47.31970 19159 ft 380 kts 129°
2026-04-24 00:12 -22.91906 -47.29771 18742 ft 378 kts 128°
2026-04-24 00:12 -22.93557 -47.27550 18332 ft 375 kts 128°
2026-04-24 00:13 -22.95192 -47.25351 17864 ft 370 kts 128°
2026-04-24 00:13 -22.96785 -47.23207 17430 ft 359 kts 128°
2026-04-24 00:13 -22.98346 -47.21105 17040 ft 356 kts 128°
2026-04-24 00:13 -22.99894 -47.19021 16643 ft 353 kts 128°
2026-04-24 00:14 -23.01442 -47.16999 16243 ft 351 kts 134°
2026-04-24 00:14 -23.03435 -47.15490 15855 ft 350 kts 155°
2026-04-24 00:14 -23.05758 -47.14748 15485 ft 348 kts 167°
2026-04-24 00:14 -23.08140 -47.14234 15084 ft 346 kts 168°
2026-04-24 00:15 -23.10497 -47.13754 14695 ft 345 kts 167°
2026-04-24 00:15 -23.12829 -47.13271 14310 ft 343 kts 167°
2026-04-24 00:15 -23.15167 -47.12775 13899 ft 342 kts 166°
2026-04-24 00:15 -23.17504 -47.12269 13468 ft 340 kts 167°
2026-04-24 00:16 -23.19820 -47.11760 13078 ft 338 kts 167°
2026-04-24 00:16 -23.22120 -47.11254 12674 ft 336 kts 167°
2026-04-24 00:16 -23.24402 -47.10750 12286 ft 333 kts 167°
2026-04-24 00:16 -23.26674 -47.10251 11885 ft 331 kts 166°
2026-04-24 00:17 -23.28931 -47.09757 11503 ft 329 kts 167°
2026-04-24 00:17 -23.31122 -47.09278 11114 ft 321 kts 167°
2026-04-24 00:17 -23.33283 -47.08805 10739 ft 311 kts 166°
2026-04-24 00:17 -23.35376 -47.08347 10384 ft 303 kts 166°
2026-04-24 00:18 -23.37412 -47.07901 10079 ft 292 kts 166°
2026-04-24 00:18 -23.39352 -47.07476 9767 ft 287 kts 166°
2026-04-24 00:18 -23.41231 -47.06828 9337 ft 279 kts 146°
2026-04-24 00:18 -23.42587 -47.05413 9052 ft 266 kts 123°
2026-04-24 00:19 -23.43403 -47.03630 8824 ft 265 kts 107°
2026-04-24 00:19 -23.43934 -47.01675 8370 ft 272 kts 104°
2026-04-24 00:19 -23.44429 -46.99704 8057 ft 268 kts 104°
2026-04-24 00:19 -23.44917 -46.97753 7811 ft 267 kts 104°
2026-04-24 00:20 -23.45409 -46.95803 7549 ft 267 kts 104°
2026-04-24 00:20 -23.45904 -46.93864 7334 ft 262 kts 104°
2026-04-24 00:20 -23.46378 -46.92023 7185 ft 244 kts 104°
2026-04-24 00:20 -23.46832 -46.90263 6856 ft 236 kts 104°
2026-04-24 00:21 -23.47269 -46.88574 6607 ft 228 kts 104°
2026-04-24 00:21 -23.47697 -46.86921 6403 ft 225 kts 104°
2026-04-24 00:21 -23.48114 -46.85307 6203 ft 222 kts 104°
2026-04-24 00:21 -23.48528 -46.83710 5979 ft 216 kts 104°
2026-04-24 00:22 -23.48933 -46.82149 5782 ft 211 kts 104°
2026-04-24 00:22 -23.49330 -46.80614 5584 ft 205 kts 104°
2026-04-24 00:22 -23.49585 -46.79629 5463 ft 202 kts 104°
2026-04-24 00:22 -23.50079 -46.77722 5230 ft 192 kts 104°
2026-04-24 00:23 -23.50437 -46.76339 5063 ft 187 kts 104°
2026-04-24 00:23 -23.50783 -46.74998 4865 ft 181 kts 104°
2026-04-24 00:23 -23.51029 -46.74141 4742 ft 176 kts 113°
2026-04-24 00:23 -23.51826 -46.73169 4595 ft 173 kts 141°
2026-04-24 00:24 -23.52816 -46.72453 4412 ft 166 kts 144°
2026-04-24 00:24 -23.53772 -46.71797 4285 ft 158 kts 144°
2026-04-24 00:24 -23.54654 -46.71190 4171 ft 142 kts 144°
2026-04-24 00:24 -23.55488 -46.70612 4057 ft 146 kts 144°
2026-04-24 00:25 -23.56329 -46.70029 3888 ft 141 kts 144°
2026-04-24 00:25 -23.57142 -46.69467 3771 ft 136 kts 145°
2026-04-24 00:25 -23.57940 -46.68915 3603 ft 135 kts 145°
2026-04-24 00:25 -23.58729 -46.68369 3420 ft 136 kts 146°
2026-04-24 00:26 -23.59527 -46.67817 3228 ft 136 kts 147°
2026-04-24 00:26 -23.60327 -46.67262 3047 ft 136 kts 147°
2026-04-24 00:26 -23.61121 -46.66702 2872 ft 135 kts 148°
2026-04-24 00:26 -23.61920 -46.66159 2676 ft 136 kts 148°
2026-04-24 00:27 -23.62685 -46.65633 2605 ft 113 kts 148°
2026-04-24 00:27 -23.63026 -46.65397 2609 ft 26 kts 148°
2026-04-24 00:27 -23.63134 -46.65374 2608 ft 12 kts 184°
2026-04-24 00:27 -23.63175 -46.65425 2602 ft 10 kts 274°
2026-04-24 00:28 -23.63135 -46.65468 2601 ft 8 kts 331°
2026-04-24 00:28 -23.63090 -46.65498 2601 ft 7 kts 327°
2026-04-24 00:28 -23.63044 -46.65520 2601 ft 7 kts 348°
2026-04-24 00:28 -23.62995 -46.65529 2602 ft 7 kts 339°
2026-04-24 00:29 -23.62952 -46.65555 2602 ft 7 kts 328°
2026-04-24 00:29 -23.62908 -46.65588 2602 ft 8 kts 326°
2026-04-24 00:29 -23.62859 -46.65622 2602 ft 9 kts 327°
2026-04-24 00:29 -23.62809 -46.65657 2602 ft 9 kts 328°
2026-04-24 00:30 -23.62757 -46.65692 2601 ft 9 kts 328°
2026-04-24 00:30 -23.62706 -46.65727 2601 ft 9 kts 327°
2026-04-24 00:30 -23.62651 -46.65765 2601 ft 9 kts 327°
2026-04-24 00:30 -23.62599 -46.65801 2601 ft 9 kts 327°
2026-04-24 00:31 -23.62547 -46.65837 2601 ft 9 kts 327°
2026-04-24 00:31 -23.62496 -46.65872 2600 ft 7 kts 328°
2026-04-24 00:31 -23.62478 -46.65906 2600 ft 5 kts 255°
2026-04-24 00:31 -23.62497 -46.65942 2600 ft 5 kts 237°
2026-04-24 00:32 -23.62508 -46.65961 2599 ft 1 kts 237°
2026-04-24 00:32 -23.62510 -46.65964 2599 ft 0 kts 237°